{"data":{"norad_id":39035,"intl_designator":"2012-075B","name":"MEXSAT 3","alt_names":[],"object_type":"PAYLOAD","status":"ACTIVE","operator":null,"country":"MEX","launch_date":"2012-12-19","launch_site_code":"FRGUI","launch_vehicle":null,"mission":null,"orbit_class":"UNKNOWN","rcs_meters":79.4454,"size_class":null,"mass_kg":null,"dimensions":null,"purposes":["comms"],"wikipedia_slug":null,"has_3d_model":false,"image_url":null,"decayed_at":null,"tle_current":{"epoch":"2026-05-25T03:42:38.615040Z","epoch_age_seconds":57864,"freshness":"FRESH","line1":"1 39035U 12075B   26145.15461360 -.00000028  00000+0  00000+0 0  9998","line2":"2 39035   0.0391 116.1512 0001623 331.5025  95.9282  1.00271872  6822","mean_motion":1.00271872,"eccentricity":0.0001623,"inclination_deg":0.0391,"raan_deg":116.1512,"arg_perigee_deg":331.5025,"mean_anomaly_deg":95.9282,"bstar":0,"rev_number":682,"period_min":1436.0956580126,"perigee_km":35779.727239911,"apogee_km":35793.413903989,"semimajor_km":42164.70757195,"source":"CELESTRAK","updated_at":"2026-05-25T13:38:13.940390Z"}}}